{"data":{"norad_id":59836,"intl_designator":"2024-097B","name":"STARLINK-31929","alt_names":[],"object_type":"PAYLOAD","status":"ACTIVE","operator":null,"country":"US","launch_date":"2024-05-23","launch_site_code":"AFETR","launch_vehicle":null,"mission":null,"orbit_class":"UNKNOWN","rcs_meters":null,"size_class":null,"mass_kg":null,"dimensions":null,"purposes":["comms"],"wikipedia_slug":null,"has_3d_model":false,"image_url":null,"decayed_at":null,"tle_current":{"epoch":"2026-09-21T07:52:49.436544Z","epoch_age_seconds":102964,"freshness":"FRESH","line1":"1 59836U 24097B   26264.32834996  .00000235  00000+0  18065-4 0  9990","line2":"2 59836  43.0007 249.8018 0000939 272.3450  87.7294 15.27578306131830","mean_motion":15.27578306,"eccentricity":9.39e-5,"inclination_deg":43.0007,"raan_deg":249.8018,"arg_perigee_deg":272.345,"mean_anomaly_deg":87.7294,"bstar":1.8065e-5,"rev_number":13183,"period_min":94.266853250271,"perigee_km":482.40990263903,"apogee_km":483.69843434047,"semimajor_km":6861.1911684898,"source":"CELESTRAK","updated_at":"2026-09-22T09:00:49.076056Z"}}}